Location: Battersea Observatory
(44.4318°N, 76.3841°W)
Time: 22:38:45
(UTC-05:00)

Transit 2A - Visible Passes

Search period start: 22 January 2022 00:00
Search period end: 01 February 2022 00:00
Orbit: 591 x 967 km, 66.7° (Epoch: 22 January)

Date Brightness Start Highest point End Pass type
(mag) Time Alt. Az. Time Alt. Az. Time Alt. Az.
22 Jan 8.1 18:22:05 10° N 18:25:17 14° NNE 18:26:29 13° NE visible
22 Jan 7.9 20:04:21 10° NNW 20:06:59 24° N 20:06:59 24° N visible
23 Jan 8.2 17:48:15 10° N 17:50:31 12° NNE 17:52:46 10° NE visible
23 Jan 7.5 19:30:13 10° NNW 19:34:01 29° NNE 19:34:01 29° NNE visible
23 Jan 8.8 21:13:29 10° NW 21:14:31 15° NW 21:14:31 15° NW visible
24 Jan 7.3 18:56:07 10° NNW 19:01:07 27° NE 19:01:07 27° NE visible
24 Jan 8.1 20:39:06 10° NW 20:41:38 25° NW 20:41:38 25° NW visible
25 Jan 7.5 18:22:03 10° NNW 18:26:43 21° NE 18:28:18 19° ENE visible
25 Jan 7.2 20:04:48 10° NNW 20:08:49 42° NNW 20:08:49 42° NNW visible
26 Jan 7.8 17:48:03 10° N 17:52:04 17° NNE 17:55:37 11° ENE visible
26 Jan 6.3 19:30:34 10° NNW 19:36:08 61° NNE 19:36:08 61° NNE visible
26 Jan 8.7 21:14:49 10° NW 21:16:39 17° WNW 21:16:39 17° WNW visible
27 Jan 6.5 18:56:22 10° NNW 19:02:17 47° NE 19:03:35 40° E visible
27 Jan 7.9 20:40:05 10° NW 20:44:07 29° W 20:44:07 29° W visible
28 Jan 6.9 18:22:14 10° NNW 18:27:50 36° NE 18:31:13 19° E visible
28 Jan 7.0 20:05:33 10° NW 20:11:15 46° WSW 20:11:46 44° SW visible
29 Jan 7.2 17:48:07 10° NNW 17:53:20 28° NE 17:58:11 10° E visible
29 Jan 6.5 19:31:08 10° NW 19:37:07 65° WSW 19:39:40 32° S visible
30 Jan 6.2 18:56:50 10° NNW 19:02:55 89° W 19:07:54 13° SSE visible
30 Jan 8.8 20:42:11 10° WNW 20:45:07 14° W 20:47:55 10° SW visible
31 Jan 6.2 18:22:35 10° NNW 18:28:38 67° NE 18:34:05 10° SE visible
31 Jan 8.5 20:06:58 10° WNW 20:11:12 21° WSW 20:15:09 10° SSW visible
